Погода в Эль-Амаре

Ирак     31°50′26″N   47°08′29″E
темп.,
°C
ветер,
м/с
пор.,
м/с
влажн.,
%
обл.,
%
осадки,
мм/ч
давл.,
гПа
погр.,
м
11 мая, вт
вт1100:00+33з22130 0.0 100411
03:00+31ссз6122193 0.0 1005230
06:00+32св2219100 0.0 100511
09:00+38в011188 0.0 1006512
12:00+42юз558100 0.0 10064500
15:00+42юз667100 0.0 10045234
18:00+40ю34899 0.0 100258
21:00+36зюз56104 0.0 100463
12 мая, ср
ср1200:00+33ссз61216100 0.0 1004191
03:00+31с5102057 0.0 1004139
06:00+32св341815 0.0 100557
09:00+38ююз011142 0.0 10061170
12:00+42ююз1391 0.0 10043688
15:00+43з55714 0.0 10025279
18:00+41з810950 0.0 1002741
21:00+37сз4511100 0.0 100354
13 мая, чт
чт1300:00+34сз331651 0.0 100227
03:00+32зсз221766 0.0 100211
06:00+33ююз22175 0.0 100412
09:00+38юз12110 0.0 1004611
12:00+43зсз5762 0.0 10035314
15:00+43зсз6661 0.0 10015379
18:00+42сз56734 0.0 1001155
21:00+37с4590 0.0 100260
14 мая, пт
пт1400:00+33всв4416100 0.0 100256
03:00+32св45180 0.0 100251
06:00+31всв35200 0.0 100388
09:00+38св34130 0.0 1004673
12:00+43ссз3680 0.0 10034622
15:00+44зсз6662 0.0 10005374
18:00+38с11121299 0.0 1000376
21:00+36с461278 0.0 1001128
15 мая, сб
сб1500:00+33с44160 0.0 100133
03:00+31с33190 0.0 100113
06:00+31сз22200 0.0 100235
09:00+37сз24130 0.0 1002848
12:00+41сз5690 0.0 10013748
15:00+43сз6770 0.0 9994415
18:00+41сз6880 0.0 998249
21:00+37зсз91690 0.0 1000399